Powrót do katalogu

COSMOS 1191 DEB

AktywnyHEO
NORAD 12817·DEBRIS·🇷🇺 Russia

Wystrzelony Jul 2, 1980 z Plesetsk Cosmodrome

Loading…

Następne Przeloty (najbliższe 24 godziny)

TLE

Starzejące sięSource: Space-Track

Epoka: Sep 1, 2026, 14:55 UTC

1 12817U 80057E   26244.62210607 -.00000662  00000-0  00000-0 0  9996
2 12817  63.8779 356.5709 7185233  33.3791 355.8572  1.99851641250737

Śledź COSMOS 1191 DEB w czasie rzeczywistym z AllMySat

Download on the App Store